Regional Weather Roundup
Issued by NWS

Home | Current Version | Previous Version | Graphics & Text | Print | Product List | Glossary On
Versions: 1 2 3 4 5 6 7 8 9 10 11 12 13 14 15 16 17 18 19 20 21 22 23 24 25 26 27 28 29 30 31 32 33 34 35 36 37 38 39 40 41 42 43 44 45 46 47 48 49 50
000
ASUS43 KLSX 160359
RWRMO

WEATHER SUMMARY FOR MISSOURI
NATIONAL WEATHER SERVICE SPRINGFIELD MO
1100 PM CDT TUE APR 15 2014

NOTE: "FAIR" INDICATES FEW OR NO CLOUDS BELOW 12,000 FEET WITH NO
       SIGNIFICANT WEATHER AND/OR OBSTRUCTIONS TO VISIBILITY.
       CURRENT SKY AND/OR WEATHER CONDITIONS ARE NOT AVAILABLE FOR
       CHILLICOTHE AND FARMINGTON.

MOZ001>031-035>038-043-044-053-054-160500-
...NORTHERN AND WESTERN MISSOURI...

CITY           SKY/WX    TMP DP  RH WIND       PRES   REMARKS
KANSAS CTY INT PTCLDY    48  27  44 S17       30.02S
KANSAS C DTWN  CLEAR     49  27  42 S14G23    30.04S
LEE`S SUMMIT   PTCLDY    46  28  49 S12G21    30.05S
ST JOSEPH      PTCLDY    47  29  49 S14       29.99F
CHILLICOTHE      N/A     46  28  49 SE9       30.07F
KIRKSVILLE     MOCLDY    40  26  57 S12       30.10F

$$
MOZ066>068-077>081-088>096-101>105-160500-
...SOUTHWEST MISSOURI...

CITY           SKY/WX    TMP DP  RH WIND       PRES   REMARKS
SPRINGFIELD    MOCLDY    41  26  55 SE8       30.13F
JOPLIN         PTCLDY    47  26  44 SE9       30.10F

$$
MOZ032>034-039>042-045>050-055>058-069>072-160500-
...CENTRAL MISSOURI...

CITY           SKY/WX    TMP DP  RH WIND       PRES   REMARKS
COLUMBIA       CLEAR     39  25  57 SE9       30.14F
JEFFERSON CITY PTCLDY    39  27  62 E8        30.16F
ROLLA          PTCLDY    38  23  55 SE8       30.15S
SEDALIA        PTCLDY    43  27  53 SE10      30.12F
OSAGE BEACH    MOCLDY    39  21  48 SE6       30.17S

$$
MOZ051-052-059>065-160500-
...EAST CENTRAL MISSOURI...

CITY           SKY/WX    TMP DP  RH WIND       PRES   REMARKS
ST LOUIS INTL  PTCLDY    42  23  46 SE7       30.22R
SPIRIT OF STL  CLEAR     34  26  72 E3        30.20R
ST CHARLES     PTCLDY    37  30  75 SE5       30.21R

$$
MOZ072>076-082>087-097>100-106>115-160500-
...SOUTH CENTRAL AND SOUTHEAST MISSOURI...

CITY           SKY/WX    TMP DP  RH WIND       PRES   REMARKS
CAPE GIRARDEAU CLEAR     39  26  59 CALM      30.25R
FARMINGTON     CLEAR     37  19  48 CALM      30.23R
POPLAR BLUFF   PTCLDY    43  31  62 MISG      30.23R
WEST PLAINS    PTCLDY    38  24  57 S3        30.19R

$$



USA.gov is the U.S. government's official web portal to all federal, state and local government web resources and services.